TimeCDT,TemperatureF,Dew PointF,Humidity,Sea Level PressureIn,VisibilityMPH,Wind Direction,Wind SpeedMPH,Gust SpeedMPH,PrecipitationIn,Events,Conditions,WindDirDegrees,DateUTC
12:24 AM,37.4,30.2,75,29.94,10.0,Calm,Calm,-,N/A,,Clear,0,2012-10-15 05:24:00
12:44 AM,37.4,30.2,75,29.94,10.0,Calm,Calm,-,N/A,,Clear,0,2012-10-15 05:44:00
1:04 AM,37.4,30.2,75,29.94,10.0,NNW,3.5,-,N/A,,Clear,330,2012-10-15 06:04:00
1:24 AM,35.6,30.2,81,29.94,10.0,Calm,Calm,-,N/A,,Clear,0,2012-10-15 06:24:00
1:44 AM,35.6,30.2,81,29.93,10.0,Calm,Calm,-,N/A,,Clear,0,2012-10-15 06:44:00
2:04 AM,35.6,30.2,81,29.93,10.0,Calm,Calm,-,N/A,,Clear,0,2012-10-15 07:04:00
2:24 AM,35.6,30.2,81,29.93,10.0,West,3.5,-,N/A,,Clear,270,2012-10-15 07:24:00
2:44 AM,35.6,30.2,81,29.94,10.0,West,3.5,-,N/A,,Clear,270,2012-10-15 07:44:00
3:03 AM,37.4,30.2,75,29.93,10.0,Calm,Calm,-,N/A,,Clear,0,2012-10-15 08:03:00
3:24 AM,37.4,30.2,75,29.92,10.0,Calm,Calm,-,N/A,,Clear,0,2012-10-15 08:24:00
4:03 AM,35.6,30.2,81,29.93,10.0,WSW,4.6,-,N/A,,Clear,250,2012-10-15 09:03:00
4:24 AM,37.4,30.2,75,29.93,10.0,WSW,5.8,-,N/A,,Clear,240,2012-10-15 09:24:00
4:44 AM,35.6,30.2,81,29.92,10.0,Calm,Calm,-,N/A,,Clear,0,2012-10-15 09:44:00
5:03 AM,35.6,30.2,81,29.92,10.0,Calm,Calm,-,N/A,,Clear,0,2012-10-15 10:03:00
5:24 AM,35.6,30.2,81,29.92,10.0,Calm,Calm,-,N/A,,Clear,0,2012-10-15 10:24:00
5:44 AM,33.8,28.4,81,29.92,10.0,Calm,Calm,-,N/A,,Clear,0,2012-10-15 10:44:00
6:03 AM,33.8,28.4,81,29.91,10.0,SSE,3.5,-,N/A,,Clear,160,2012-10-15 11:03:00
6:24 AM,33.8,28.4,81,29.91,10.0,SSE,4.6,-,N/A,,Clear,160,2012-10-15 11:24:00
7:03 AM,30.2,26.6,86,29.91,10.0,SSE,3.5,-,N/A,,Clear,160,2012-10-15 12:03:00
7:24 AM,30.2,26.6,86,29.91,10.0,SSE,4.6,-,N/A,,Clear,150,2012-10-15 12:24:00
7:44 AM,30.2,26.6,86,29.91,10.0,SSE,3.5,-,N/A,,Clear,160,2012-10-15 12:44:00
8:04 AM,30.2,26.6,86,29.91,10.0,SE,3.5,-,N/A,,Clear,140,2012-10-15 13:04:00
8:24 AM,32.0,28.4,87,29.92,7.0,SSE,3.5,-,N/A,,Clear,150,2012-10-15 13:24:00
8:44 AM,35.6,30.2,81,29.91,10.0,SE,3.5,-,N/A,,Clear,140,2012-10-15 13:44:00
9:04 AM,35.6,30.2,81,29.91,10.0,SE,6.9,-,N/A,,Clear,140,2012-10-15 14:04:00
9:24 AM,41.0,33.8,76,29.91,10.0,SSE,4.6,-,N/A,,Clear,160,2012-10-15 14:24:00
9:43 AM,42.8,33.8,70,29.91,10.0,SSE,6.9,-,N/A,,Clear,160,2012-10-15 14:43:00
10:04 AM,46.4,33.8,62,29.91,10.0,SSE,5.8,-,N/A,,Clear,150,2012-10-15 15:04:00
10:24 AM,48.2,35.6,62,29.90,10.0,SSE,5.8,-,N/A,,Clear,150,2012-10-15 15:24:00
10:43 AM,50.0,35.6,58,29.90,10.0,SSE,6.9,-,N/A,,Clear,150,2012-10-15 15:43:00
11:04 AM,51.8,37.4,58,29.90,10.0,SE,8.1,-,N/A,,Mostly Cloudy,140,2012-10-15 16:04:00
11:24 AM,57.2,37.4,48,29.89,10.0,SSE,8.1,-,N/A,,Scattered Clouds,160,2012-10-15 16:24:00
11:44 AM,57.2,35.6,44,29.88,10.0,SSE,10.4,-,N/A,,Clear,150,2012-10-15 16:44:00
12:04 PM,60.8,35.6,39,29.87,10.0,South,10.4,-,N/A,,Scattered Clouds,170,2012-10-15 17:04:00
12:23 PM,60.8,35.6,39,29.86,10.0,SSE,9.2,18.4,N/A,,Scattered Clouds,150,2012-10-15 17:23:00
12:44 PM,62.6,35.6,37,29.85,10.0,South,12.7,17.3,N/A,,Clear,170,2012-10-15 17:44:00
1:04 PM,62.6,35.6,37,29.84,10.0,SSE,12.7,17.3,N/A,,Scattered Clouds,160,2012-10-15 18:04:00
1:24 PM,64.4,35.6,34,29.83,10.0,South,12.7,19.6,N/A,,Clear,180,2012-10-15 18:24:00
1:44 PM,64.4,35.6,34,29.81,10.0,South,13.8,19.6,N/A,,Clear,180,2012-10-15 18:44:00
2:04 PM,64.4,33.8,32,29.81,10.0,South,13.8,17.3,N/A,,Clear,190,2012-10-15 19:04:00
2:23 PM,64.4,35.6,34,29.79,10.0,South,10.4,-,N/A,,Clear,190,2012-10-15 19:23:00
2:44 PM,64.4,33.8,32,29.78,10.0,South,15.0,18.4,N/A,,Clear,170,2012-10-15 19:44:00
3:04 PM,64.4,35.6,34,29.76,10.0,SSE,13.8,18.4,N/A,,Clear,160,2012-10-15 20:04:00
3:23 PM,64.4,33.8,32,29.76,10.0,South,13.8,19.6,N/A,,Clear,170,2012-10-15 20:23:00
3:44 PM,66.2,33.8,30,29.75,10.0,South,13.8,-,N/A,,Clear,170,2012-10-15 20:44:00
4:04 PM,66.2,33.8,30,29.74,10.0,South,11.5,21.9,N/A,,Clear,170,2012-10-15 21:04:00
4:24 PM,66.2,35.6,32,29.73,10.0,South,11.5,-,N/A,,Clear,170,2012-10-15 21:24:00
4:44 PM,68.0,35.6,30,29.72,10.0,South,13.8,19.6,N/A,,Clear,170,2012-10-15 21:44:00
5:04 PM,68.0,33.8,28,29.71,10.0,South,17.3,23.0,N/A,,Clear,170,2012-10-15 22:04:00
5:24 PM,66.2,33.8,30,29.70,10.0,South,16.1,20.7,N/A,,Clear,170,2012-10-15 22:24:00
6:03 PM,66.2,33.8,30,29.69,10.0,South,9.2,-,N/A,,Clear,170,2012-10-15 23:03:00
6:24 PM,64.4,33.8,32,29.69,10.0,SSE,10.4,-,N/A,,Clear,160,2012-10-15 23:24:00
7:03 PM,60.8,35.6,39,29.68,10.0,SSE,8.1,-,N/A,,Clear,150,2012-10-16 00:03:00
7:24 PM,59.0,35.6,42,29.67,10.0,SSE,10.4,-,N/A,,Clear,150,2012-10-16 00:24:00
7:44 PM,59.0,35.6,42,29.66,10.0,SE,10.4,-,N/A,,Clear,140,2012-10-16 00:44:00
8:03 PM,57.2,35.6,44,29.66,10.0,SSE,9.2,-,N/A,,Clear,150,2012-10-16 01:03:00
8:24 PM,57.2,35.6,44,29.66,10.0,SSE,8.1,-,N/A,,Clear,150,2012-10-16 01:24:00
8:44 PM,57.2,35.6,44,29.65,10.0,SSE,6.9,-,N/A,,Clear,150,2012-10-16 01:44:00
9:03 PM,57.2,35.6,44,29.65,10.0,SSE,8.1,-,N/A,,Clear,150,2012-10-16 02:03:00
9:24 PM,57.2,35.6,44,29.64,10.0,SE,10.4,-,N/A,,Clear,140,2012-10-16 02:24:00
9:44 PM,55.4,35.6,47,29.64,10.0,SE,9.2,-,N/A,,Clear,140,2012-10-16 02:44:00
10:03 PM,55.4,35.6,47,29.63,10.0,SE,9.2,-,N/A,,Mostly Cloudy,140,2012-10-16 03:03:00
10:24 PM,55.4,35.6,47,29.62,10.0,SE,9.2,-,N/A,,Overcast,140,2012-10-16 03:24:00
10:44 PM,55.4,35.6,47,29.62,10.0,SSE,4.6,-,N/A,,Scattered Clouds,150,2012-10-16 03:44:00
11:03 PM,55.4,35.6,47,29.61,10.0,SSE,5.8,-,N/A,,Scattered Clouds,150,2012-10-16 04:03:00
11:24 PM,55.4,35.6,47,29.61,10.0,SSE,5.8,-,N/A,,Mostly Cloudy,150,2012-10-16 04:24:00
11:44 PM,55.4,35.6,47,29.61,10.0,South,6.9,-,N/A,,Mostly Cloudy,180,2012-10-16 04:44:00